{"data":{"norad_id":51751,"intl_designator":"2022-016AP","name":"STARLINK-3506","alt_names":[],"object_type":"PAYLOAD","status":"ACTIVE","operator":null,"country":"US","launch_date":"2022-02-21","launch_site_code":"AFETR","launch_vehicle":null,"mission":null,"orbit_class":"UNKNOWN","rcs_meters":null,"size_class":null,"mass_kg":null,"dimensions":null,"purposes":["comms"],"wikipedia_slug":null,"has_3d_model":false,"image_url":null,"decayed_at":null,"tle_current":{"epoch":"2026-09-19T04:08:58.630848Z","epoch_age_seconds":166926,"freshness":"FRESH","line1":"1 51751U 22016AP  26262.17290082  .00000975  00000+0  39974-4 0  9993","line2":"2 51751  53.1583 145.5791 0001167  87.2229 272.8907 15.34405269253119","mean_motion":15.34405269,"eccentricity":0.0001167,"inclination_deg":53.1583,"raan_deg":145.5791,"arg_perigee_deg":87.2229,"mean_anomaly_deg":272.8907,"bstar":3.9974e-5,"rev_number":25311,"period_min":93.847435817167,"perigee_km":461.88925544508,"apogee_km":463.48590390198,"semimajor_km":6840.8245796735,"source":"CELESTRAK","updated_at":"2026-09-20T09:00:39.933771Z"}}}